Starlink 11191

operational
NORAD ID: 60410 Int'l Des: 2024-141 Owner: SPXS Country: US Constellation: starlink
LEOCIRCULAR

Starlink 11191について

説明を読み込み中...

リアルタイム位置

3D地球を読み込み中...

次回通過

高度履歴

Altitude vs Time

uPlot chart will show altitude changes over time

軌道要素

1 60410U 24141N 25258.21325591 .00000910 00000-0 12373-4 0 9993
2 60410 53.1568 231.1971 0001895 96.6871 263.4363 15.69717261 64186
Epoch: Sep 15, 2025 • Age: 33 hours

現在のステータス

高度 374.4 km
速度 7.68 km/s
衛星直下点 -41.01°S, 29.38°W
打ち上げ日 Aug 10, 2024
運用期間 1.1 years
タイプ internet

技術仕様

分類 Payload
質量 960.00 kg
乾燥質量 910.00 kg
総質量 960.00 kg
長さ 0.30 m
直径 4.10 m
スパン 29.00 m
形状 Box + pan
製造者 SPXS
バスタイプ Starlink V2MD
フェーズステータス In Orbit
所有者/国 SPXS/US

大規模コンステレーション

Loading constellations...